Torna al catalogo

STARLINK-31240

AttivoComunicazioniVLEO
NORAD 59041·PAYLOAD·🇺🇸 United States

Lanciato Feb 25, 2024 da Cape Canaveral Space Force Station

Loading…

Prossimi Passaggi (prossime 24 ore)

TLE

AggiornatoSource: CelesTrak SupGP

Epoca: Sep 14, 2026, 21:39 UTC

1 59041C 24038U   26257.90256944  .00050166  00000+0  18177-2 0  2577
2 59041  43.0042  35.2602 0001651 280.8116  48.4160 15.27541531    19

Traccia STARLINK-31240 in tempo reale con AllMySat

Download on the App Store